Simultaneous Nadir Overpasses (SNOs) Predictions

Prediction of SNOs between LANDSAT-8 and METOP-A Satellite Orbit:

Table of predicted SNOs for the next 14.0 days since TLE Epoch: 8/10/2019
Index Date (LANDSAT-8) Time (LANDSAT-8) Lat,Lon (LANDSAT-8) SZA (LANDSAT-8 ) Date (METOP-A) Time (METOP-A) Lat,Lon (METOP-A) SZA (METOP-A ) Distance(km) Time Diff (sec)
1 08/12/2019 02:22:14 81.47,-168.97 68.99 08/12/2019 02:22:11 81.47,-169.01 68.98 0.57 3
2 08/12/2019 03:11:40 -81.47, -1.40 111.02 08/12/2019 03:12:50 -81.47, -1.35 110.98 0.90 70
3 08/14/2019 21:56:29 81.48,-102.49 69.86 08/14/2019 21:56:18 81.47,-102.66 69.83 2.89 11
4 08/14/2019 22:45:56 -81.47, 65.10 110.14 08/14/2019 22:46:58 -81.47, 65.03 110.12 1.20 62
5 08/17/2019 17:30:45 81.48, -36.03 70.76 08/17/2019 17:30:25 81.47, -35.93 70.76 1.78 20
6 08/17/2019 18:20:12 -81.48, 131.59 109.24 08/17/2019 18:21:06 -81.47, 131.41 109.24 3.04 54
7 08/20/2019 13:05:01 81.48, 30.40 71.68 08/20/2019 13:04:33 81.47, 30.40 71.67 0.43 28
8 08/20/2019 13:54:28 -81.48,-161.96 108.31 08/20/2019 13:55:13 -81.47,-161.83 108.28 2.10 45
9 08/23/2019 08:39:16 81.48, 96.81 72.63 08/23/2019 08:38:40 81.47, 96.71 72.61 1.60 36




NCC Satellite Simultaneous Nadir Overpasses (SNOs) Prediction Service
